Time,TemperatureF,DewpointF,PressureIn,WindDirection,WindDirectionDegrees,WindSpeedMPH,WindSpeedGustMPH,Humidity,HourlyPrecipIn,Conditions,Clouds,dailyrainin,SoftwareType,DateUTC
2013-01-26 00:03:00,25.0,19.0,30.07,WSW,247,0.0,0.0,78,0.00,,,0.00,,2013-01-26 05:03:00,
2013-01-26 00:12:00,25.0,19.0,30.07,WSW,247,0.0,0.0,78,0.00,,,0.00,,2013-01-26 05:12:00,
2013-01-26 00:23:00,25.0,19.0,30.08,West,270,2.0,2.0,78,0.00,,,0.00,,2013-01-26 05:23:00,
2013-01-26 00:33:00,25.0,19.0,30.08,West,270,2.0,2.0,78,0.00,,,0.00,,2013-01-26 05:33:00,
2013-01-26 00:42:00,25.0,19.0,30.08,West,270,2.0,2.0,78,0.00,,,0.00,,2013-01-26 05:42:00,
2013-01-26 00:52:00,25.0,19.0,30.08,WNW,292,2.0,3.0,78,0.00,,,0.00,,2013-01-26 05:52:00,
2013-01-26 01:03:00,25.0,19.0,30.09,WNW,292,0.0,3.0,78,0.00,,,0.00,,2013-01-26 06:03:00,
2013-01-26 01:12:00,25.0,19.0,30.09,WNW,292,0.0,3.0,78,0.00,,,0.00,,2013-01-26 06:12:00,
2013-01-26 01:21:00,25.0,19.0,30.10,West,270,0.0,1.0,78,0.00,,,0.00,,2013-01-26 06:21:00,
2013-01-26 01:32:00,25.0,19.0,30.10,West,270,0.0,1.0,78,0.00,,,0.00,,2013-01-26 06:32:00,
2013-01-26 01:42:00,25.0,19.0,30.10,West,270,0.0,1.0,78,0.00,,,0.00,,2013-01-26 06:42:00,
2013-01-26 01:52:00,25.0,19.0,30.11,WNW,292,0.0,1.0,76,0.00,,,0.00,,2013-01-26 06:52:00,
2013-01-26 02:02:00,25.0,19.0,30.12,WNW,292,3.0,3.0,76,0.00,,,0.00,,2013-01-26 07:02:00,
2013-01-26 02:12:00,25.0,19.0,30.12,WNW,292,3.0,3.0,76,0.00,,,0.00,,2013-01-26 07:12:00,
2013-01-26 02:22:00,25.0,19.0,30.12,WNW,292,3.0,3.0,76,0.00,,,0.00,,2013-01-26 07:22:00,
2013-01-26 02:33:00,24.0,17.0,30.13,WNW,292,0.0,1.0,75,0.00,,,0.00,,2013-01-26 07:33:00,
2013-01-26 02:41:00,24.0,17.0,30.13,WNW,292,0.0,1.0,75,0.00,,,0.00,,2013-01-26 07:41:00,
2013-01-26 02:52:00,24.0,17.0,30.14,WNW,292,2.0,3.0,75,0.00,,,0.00,,2013-01-26 07:52:00,
2013-01-26 03:02:00,24.0,17.0,30.14,WNW,292,5.0,5.0,75,0.00,,,0.00,,2013-01-26 08:02:00,
2013-01-26 03:11:00,24.0,17.0,30.14,WNW,292,5.0,5.0,75,0.00,,,0.00,,2013-01-26 08:11:00,
2013-01-26 03:21:00,23.0,16.0,30.15,NW,315,1.0,1.0,74,0.00,,,0.00,,2013-01-26 08:21:00,
2013-01-26 03:32:00,23.0,16.0,30.15,NW,315,0.0,1.0,74,0.00,,,0.00,,2013-01-26 08:32:00,
2013-01-26 03:42:00,23.0,16.0,30.15,NW,315,0.0,1.0,74,0.00,,,0.00,,2013-01-26 08:42:00,
2013-01-26 03:54:00,23.0,16.0,30.16,NW,315,1.0,1.0,74,0.00,,,0.00,,2013-01-26 08:54:00,
2013-01-26 04:02:00,23.0,16.0,30.15,West,270,1.0,2.0,74,0.00,,,0.00,,2013-01-26 09:02:00,
2013-01-26 04:11:00,23.0,16.0,30.15,West,270,1.0,2.0,74,0.00,,,0.00,,2013-01-26 09:11:00,
2013-01-26 04:22:00,23.0,16.0,30.16,NW,315,0.0,0.0,73,0.00,,,0.00,,2013-01-26 09:22:00,
2013-01-26 04:32:00,23.0,16.0,30.16,NW,315,0.0,0.0,73,0.00,,,0.00,,2013-01-26 09:32:00,
2013-01-26 04:42:00,23.0,16.0,30.16,NW,315,0.0,0.0,73,0.00,,,0.00,,2013-01-26 09:42:00,
2013-01-26 04:52:00,23.0,16.0,30.17,WNW,292,0.0,0.0,74,0.00,,,0.00,,2013-01-26 09:52:00,
2013-01-26 05:01:00,23.0,16.0,30.18,WNW,292,0.0,0.0,74,0.00,,,0.00,,2013-01-26 10:01:00,
2013-01-26 05:12:00,23.0,16.0,30.18,WNW,292,0.0,0.0,74,0.00,,,0.00,,2013-01-26 10:12:00,
2013-01-26 05:21:00,22.0,15.0,30.18,West,270,0.0,0.0,74,0.00,,,0.00,,2013-01-26 10:21:00,
2013-01-26 05:32:00,22.0,15.0,30.18,West,270,0.0,0.0,74,0.00,,,0.00,,2013-01-26 10:32:00,
2013-01-26 05:42:00,22.0,15.0,30.18,West,270,0.0,0.0,74,0.00,,,0.00,,2013-01-26 10:42:00,
2013-01-26 05:52:00,22.0,15.0,30.19,NW,315,0.0,0.0,74,0.00,,,0.00,,2013-01-26 10:52:00,
2013-01-26 06:01:00,22.0,15.0,30.19,WNW,292,0.0,3.0,74,0.00,,,0.00,,2013-01-26 11:01:00,
2013-01-26 06:12:00,22.0,15.0,30.19,WNW,292,0.0,3.0,74,0.00,,,0.00,,2013-01-26 11:12:00,
2013-01-26 06:22:00,22.0,15.0,30.20,WNW,292,0.0,0.0,74,0.00,,,0.00,,2013-01-26 11:22:00,
2013-01-26 06:32:00,22.0,15.0,30.21,WNW,292,0.0,0.0,74,0.00,,,0.00,,2013-01-26 11:32:00,
2013-01-26 06:42:00,22.0,15.0,30.21,WNW,292,0.0,0.0,74,0.00,,,0.00,,2013-01-26 11:42:00,
2013-01-26 06:52:00,22.0,15.0,30.21,WNW,292,0.0,0.0,74,0.00,,,0.00,,2013-01-26 11:52:00,
2013-01-26 07:02:00,22.0,15.0,30.22,West,270,0.0,0.0,74,0.00,,,0.00,,2013-01-26 12:02:00,
2013-01-26 07:12:00,22.0,15.0,30.22,West,270,0.0,0.0,74,0.00,,,0.00,,2013-01-26 12:12:00,
2013-01-26 07:23:00,22.0,15.0,30.23,West,270,1.0,1.0,74,0.00,,,0.00,,2013-01-26 12:23:00,
2013-01-26 07:33:00,22.0,15.0,30.24,WNW,292,0.0,0.0,74,0.00,,,0.00,,2013-01-26 12:33:00,
2013-01-26 07:42:00,22.0,15.0,30.24,WNW,292,0.0,0.0,74,0.00,,,0.00,,2013-01-26 12:42:00,
2013-01-26 07:52:00,22.0,15.0,30.25,West,270,1.0,1.0,74,0.00,,,0.00,,2013-01-26 12:52:00,
2013-01-26 08:03:00,22.0,15.0,30.26,West,270,1.0,1.0,74,0.00,,,0.00,,2013-01-26 13:03:00,
2013-01-26 08:12:00,22.0,15.0,30.26,West,270,1.0,1.0,74,0.00,,,0.00,,2013-01-26 13:12:00,
2013-01-26 08:22:00,22.0,15.0,30.26,West,270,0.0,1.0,74,0.00,,,0.00,,2013-01-26 13:22:00,
2013-01-26 08:33:00,21.0,14.0,30.27,WNW,292,1.0,1.0,74,0.00,,,0.00,,2013-01-26 13:33:00,
2013-01-26 08:42:00,21.0,14.0,30.27,WNW,292,1.0,1.0,74,0.00,,,0.00,,2013-01-26 13:42:00,
2013-01-26 08:52:00,21.0,14.0,30.27,WNW,292,1.0,1.0,74,0.00,,,0.00,,2013-01-26 13:52:00,
2013-01-26 09:03:00,21.0,14.0,30.29,WNW,292,0.0,0.0,74,0.00,,,0.00,,2013-01-26 14:03:00,
2013-01-26 09:12:00,21.0,14.0,30.29,WNW,292,0.0,0.0,74,0.00,,,0.00,,2013-01-26 14:12:00,
2013-01-26 09:22:00,21.0,14.0,30.29,WNW,292,2.0,2.0,74,0.00,,,0.00,,2013-01-26 14:22:00,
2013-01-26 09:32:00,22.0,15.0,30.30,WNW,292,2.0,5.0,75,0.00,,,0.00,,2013-01-26 14:32:00,
2013-01-26 09:43:00,22.0,15.0,30.30,WNW,292,2.0,5.0,75,0.00,,,0.00,,2013-01-26 14:43:00,
2013-01-26 09:52:00,22.0,15.0,30.30,West,270,1.0,3.0,74,0.00,,,0.00,,2013-01-26 14:52:00,
2013-01-26 10:03:00,22.0,15.0,30.31,WNW,282,2.0,2.0,75,0.00,,,0.00,,2013-01-26 15:03:00,
2013-01-26 10:12:00,22.0,15.0,30.31,WNW,282,2.0,2.0,75,0.00,,,0.00,,2013-01-26 15:12:00,
2013-01-26 10:22:00,22.0,15.0,30.32,WNW,292,2.0,2.0,75,0.00,,,0.00,,2013-01-26 15:22:00,
2013-01-26 10:33:00,23.0,16.0,30.32,WNW,292,3.0,3.0,74,0.00,,,0.00,,2013-01-26 15:33:00,
2013-01-26 10:43:00,23.0,16.0,30.32,WNW,292,3.0,3.0,74,0.00,,,0.00,,2013-01-26 15:43:00,
2013-01-26 10:52:00,23.0,16.0,30.33,WNW,292,0.0,1.0,74,0.00,,,0.00,,2013-01-26 15:52:00,
2013-01-26 11:02:00,23.0,16.0,30.34,WNW,292,3.0,3.0,74,0.00,,,0.00,,2013-01-26 16:02:00,
2013-01-26 11:12:00,24.0,17.0,30.35,WNW,292,0.0,1.0,74,0.00,,,0.00,,2013-01-26 16:12:00,
2013-01-26 11:22:00,24.0,17.0,30.35,WNW,292,0.0,1.0,74,0.00,,,0.00,,2013-01-26 16:22:00,
2013-01-26 11:33:00,24.0,17.0,30.36,NW,315,0.0,2.0,74,0.00,,,0.00,,2013-01-26 16:33:00,
2013-01-26 11:42:00,24.0,17.0,30.36,NW,315,0.0,2.0,74,0.00,,,0.00,,2013-01-26 16:42:00,
2013-01-26 11:53:00,23.0,16.0,30.36,WNW,292,0.0,4.0,74,0.00,,,0.00,,2013-01-26 16:53:00,
2013-01-26 12:03:00,23.0,16.0,30.36,WNW,292,3.0,3.0,74,0.00,,,0.00,,2013-01-26 17:03:00,
2013-01-26 12:13:00,23.0,16.0,30.36,WNW,292,3.0,3.0,74,0.00,,,0.00,,2013-01-26 17:13:00,
2013-01-26 12:22:00,24.0,17.0,30.37,West,270,0.0,4.0,73,0.00,,,0.00,,2013-01-26 17:22:00,
2013-01-26 12:33:00,24.0,17.0,30.36,WNW,292,0.0,1.0,73,0.00,,,0.00,,2013-01-26 17:33:00,
2013-01-26 12:42:00,24.0,17.0,30.36,WNW,292,0.0,1.0,73,0.00,,,0.00,,2013-01-26 17:42:00,
2013-01-26 12:53:00,24.0,16.0,30.36,WNW,292,1.0,1.0,71,0.00,,,0.00,,2013-01-26 17:53:00,
2013-01-26 13:03:00,24.0,16.0,30.36,WNW,292,0.0,1.0,70,0.00,,,0.00,,2013-01-26 18:03:00,
2013-01-26 13:12:00,24.0,16.0,30.36,WNW,292,0.0,1.0,70,0.00,,,0.00,,2013-01-26 18:12:00,
2013-01-26 13:22:00,24.0,15.0,30.35,NW,315,0.0,3.0,69,0.00,,,0.00,,2013-01-26 18:22:00,
2013-01-26 13:33:00,24.0,15.0,30.35,West,270,0.0,1.0,69,0.00,,,0.00,,2013-01-26 18:33:00,
2013-01-26 13:42:00,24.0,15.0,30.35,West,270,0.0,1.0,69,0.00,,,0.00,,2013-01-26 18:42:00,
2013-01-26 13:53:00,24.0,15.0,30.34,NW,315,0.0,1.0,68,0.00,,,0.00,,2013-01-26 18:53:00,
2013-01-26 14:03:00,23.0,14.0,30.34,West,270,0.0,1.0,68,0.00,,,0.00,,2013-01-26 19:03:00,
2013-01-26 14:12:00,23.0,14.0,30.34,West,270,0.0,1.0,68,0.00,,,0.00,,2013-01-26 19:12:00,
2013-01-26 14:22:00,24.0,15.0,30.34,West,270,0.0,1.0,68,0.00,,,0.00,,2013-01-26 19:22:00,
2013-01-26 14:32:00,24.0,15.0,30.34,WNW,292,0.0,0.0,67,0.00,,,0.00,,2013-01-26 19:32:00,
2013-01-26 14:42:00,24.0,15.0,30.34,WNW,292,0.0,0.0,67,0.00,,,0.00,,2013-01-26 19:42:00,
2013-01-26 14:53:00,24.0,15.0,30.34,WNW,292,1.0,1.0,67,0.00,,,0.00,,2013-01-26 19:53:00,
2013-01-26 15:02:00,24.0,14.0,30.34,WNW,292,0.0,0.0,66,0.00,,,0.00,,2013-01-26 20:02:00,
2013-01-26 15:11:00,24.0,14.0,30.34,WNW,292,0.0,0.0,66,0.00,,,0.00,,2013-01-26 20:11:00,
2013-01-26 15:22:00,24.0,15.0,30.35,WNW,292,0.0,0.0,67,0.00,,,0.00,,2013-01-26 20:22:00,
2013-01-26 15:32:00,24.0,15.0,30.35,NW,315,0.0,0.0,67,0.00,,,0.00,,2013-01-26 20:32:00,
2013-01-26 15:42:00,24.0,15.0,30.35,NW,315,0.0,0.0,67,0.00,,,0.00,,2013-01-26 20:42:00,
2013-01-26 15:52:00,25.0,16.0,30.35,NW,315,0.0,0.0,67,0.00,,,0.00,,2013-01-26 20:52:00,
2013-01-26 16:03:00,25.0,16.0,30.36,WNW,292,0.0,0.0,67,0.00,,,0.00,,2013-01-26 21:03:00,
2013-01-26 16:12:00,25.0,16.0,30.36,WNW,292,0.0,0.0,67,0.00,,,0.00,,2013-01-26 21:12:00,
2013-01-26 16:22:00,25.0,16.0,30.36,WNW,292,0.0,0.0,67,0.00,,,0.00,,2013-01-26 21:22:00,
2013-01-26 16:32:00,26.0,17.0,30.37,WNW,292,0.0,0.0,67,0.00,,,0.00,,2013-01-26 21:32:00,
2013-01-26 16:42:00,26.0,17.0,30.37,WNW,292,0.0,0.0,67,0.00,,,0.00,,2013-01-26 21:42:00,
2013-01-26 16:52:00,27.0,18.0,30.37,WNW,292,0.0,0.0,67,0.00,,,0.00,,2013-01-26 21:52:00,
2013-01-26 17:02:00,27.0,18.0,30.37,WNW,292,0.0,0.0,67,0.00,,,0.00,,2013-01-26 22:02:00,
2013-01-26 17:12:00,27.0,18.0,30.37,WNW,292,0.0,0.0,67,0.00,,,0.00,,2013-01-26 22:12:00,
2013-01-26 17:22:00,28.0,18.0,30.36,WNW,292,0.0,0.0,67,0.00,,,0.00,,2013-01-26 22:22:00,
2013-01-26 17:32:00,28.0,19.0,30.37,WNW,292,0.0,0.0,68,0.00,,,0.00,,2013-01-26 22:32:00,
2013-01-26 17:42:00,28.0,19.0,30.37,WNW,292,0.0,0.0,68,0.00,,,0.00,,2013-01-26 22:42:00,
2013-01-26 17:52:00,28.0,19.0,30.38,WNW,292,0.0,0.0,68,0.00,,,0.00,,2013-01-26 22:52:00,
2013-01-26 18:02:00,27.0,18.0,30.39,WNW,292,0.0,0.0,69,0.00,,,0.00,,2013-01-26 23:02:00,
2013-01-26 18:12:00,27.0,18.0,30.39,WNW,292,0.0,0.0,69,0.00,,,0.00,,2013-01-26 23:12:00,
2013-01-26 18:22:00,27.0,18.0,30.39,WNW,292,0.0,0.0,69,0.00,,,0.00,,2013-01-26 23:22:00,
2013-01-26 18:32:00,27.0,18.0,30.39,WNW,292,0.0,0.0,69,0.00,,,0.00,,2013-01-26 23:32:00,
2013-01-26 18:42:00,27.0,18.0,30.39,WNW,292,0.0,0.0,69,0.00,,,0.00,,2013-01-26 23:42:00,
2013-01-26 18:52:00,27.0,18.0,30.39,WNW,292,0.0,0.0,69,0.00,,,0.00,,2013-01-26 23:52:00,
2013-01-26 19:02:00,26.0,17.0,30.39,WNW,292,0.0,0.0,69,0.00,,,0.00,,2013-01-27 00:02:00,
2013-01-26 19:12:00,26.0,17.0,30.39,WNW,292,0.0,0.0,69,0.00,,,0.00,,2013-01-27 00:12:00,
2013-01-26 19:21:00,26.0,18.0,30.40,WNW,292,0.0,0.0,70,0.00,,,0.00,,2013-01-27 00:21:00,
2013-01-26 19:32:00,26.0,18.0,30.39,WNW,292,0.0,0.0,70,0.00,,,0.00,,2013-01-27 00:32:00,
2013-01-26 19:42:00,26.0,18.0,30.39,WNW,292,0.0,0.0,70,0.00,,,0.00,,2013-01-27 00:42:00,
2013-01-26 19:52:00,26.0,18.0,30.40,WNW,292,0.0,0.0,70,0.00,,,0.00,,2013-01-27 00:52:00,
2013-01-26 20:01:00,26.0,18.0,30.41,WNW,292,0.0,0.0,70,0.00,,,0.00,,2013-01-27 01:01:00,
2013-01-26 20:11:00,26.0,18.0,30.41,WNW,292,0.0,0.0,70,0.00,,,0.00,,2013-01-27 01:11:00,
2013-01-26 20:22:00,26.0,18.0,30.41,NNW,337,0.0,0.0,70,0.00,,,0.00,,2013-01-27 01:22:00,
2013-01-26 20:32:00,26.0,18.0,30.41,NNW,337,0.0,0.0,70,0.00,,,0.00,,2013-01-27 01:32:00,
2013-01-26 20:42:00,26.0,18.0,30.41,NNW,337,0.0,0.0,70,0.00,,,0.00,,2013-01-27 01:42:00,
2013-01-26 20:52:00,26.0,18.0,30.40,NNW,337,0.0,0.0,70,0.00,,,0.00,,2013-01-27 01:52:00,
2013-01-26 21:01:00,26.0,18.0,30.41,NNW,337,0.0,0.0,70,0.00,,,0.00,,2013-01-27 02:01:00,
2013-01-26 21:12:00,26.0,18.0,30.41,NNW,337,0.0,0.0,70,0.00,,,0.00,,2013-01-27 02:12:00,
2013-01-26 21:22:00,26.0,18.0,30.40,NNW,337,0.0,0.0,70,0.00,,,0.00,,2013-01-27 02:22:00,
2013-01-26 21:32:00,26.0,18.0,30.40,NNW,337,0.0,0.0,70,0.00,,,0.00,,2013-01-27 02:32:00,
2013-01-26 21:42:00,26.0,18.0,30.40,NNW,337,0.0,0.0,70,0.00,,,0.00,,2013-01-27 02:42:00,
2013-01-26 21:52:00,25.0,17.0,30.41,NNW,337,0.0,0.0,70,0.00,,,0.00,,2013-01-27 02:52:00,
2013-01-26 22:02:00,25.0,17.0,30.42,NNW,337,0.0,0.0,70,0.00,,,0.00,,2013-01-27 03:02:00,
2013-01-26 22:11:00,25.0,17.0,30.42,NNW,337,0.0,0.0,70,0.00,,,0.00,,2013-01-27 03:11:00,
2013-01-26 22:21:00,25.0,17.0,30.42,NNW,337,0.0,0.0,71,0.00,,,0.00,,2013-01-27 03:21:00,
2013-01-26 22:32:00,24.0,16.0,30.43,NNW,337,0.0,0.0,71,0.00,,,0.00,,2013-01-27 03:32:00,
2013-01-26 22:42:00,24.0,16.0,30.43,NNW,337,0.0,0.0,71,0.00,,,0.00,,2013-01-27 03:42:00,
2013-01-26 22:52:00,24.0,16.0,30.42,NNW,337,0.0,0.0,71,0.00,,,0.00,,2013-01-27 03:52:00,
2013-01-26 23:02:00,24.0,16.0,30.42,NNW,337,0.0,0.0,71,0.00,,,0.00,,2013-01-27 04:02:00,
2013-01-26 23:12:00,24.0,16.0,30.42,NNW,337,0.0,0.0,71,0.00,,,0.00,,2013-01-27 04:12:00,
2013-01-26 23:21:00,23.0,15.0,30.42,NE,45,0.0,0.0,72,0.00,,,0.00,,2013-01-27 04:21:00,
2013-01-26 23:32:00,23.0,15.0,30.41,NE,45,0.0,0.0,72,0.00,,,0.00,,2013-01-27 04:32:00,
2013-01-26 23:42:00,23.0,15.0,30.41,NE,45,0.0,0.0,72,0.00,,,0.00,,2013-01-27 04:42:00,
2013-01-26 23:52:00,23.0,15.0,30.41,SE,135,0.0,0.0,72,0.00,,,0.00,,2013-01-27 04:52:00,